Location: Ahstedt
(52.2048°N, 10.1060°E)
Time: 09:09:58
(UTC+00:00)

Cosmos 2278 Rocket - Pass Details

Date: 18 January 2026
Orbit: 839 x 846 km, 71.0° (Epoch: 19 February)

Event Time Altitude Azimuth Distance (km) Brightness Sun altitude
Exits shadow 05:56:18 - 236° (WSW) 3,338 4.9 -12.2°
Reaches altitude 10° 05:58:45 10° 244° (WSW) 2,457 4.2 -11.8°
Maximum altitude 06:04:02 40° 313° (NW) 1,237 2.6 -11.1°
Drops below altitude 10° 06:09:21 10° 22° (NNE) 2,473 4.7 -10.3°
Sets 06:11:58 0° 30° (NNE) 3,413 5.5 -9.9°
